Simultaneous Nadir Overpasses (SNOs) Predictions

Prediction of SNOs between AQUA and GOES-15 Satellite Orbit:

Table of predicted SNOs for the next 14.0 days since TLE Epoch: 4/25/2015
Index Date Time (AQUA) AQUA Lat,Lon GOES-15 Lat,Lon Distance(km) Time Diff (sec)
1 04/26/2015 22:36:12 -0.01,-134.95 -0.07,-135.36 45.96 80
2 04/28/2015 22:24:01 0.66,-132.00 -0.07,-135.39 385.65 80
3 04/29/2015 10:45:16 0.45,-137.15 0.07,-135.44 195.16 80
4 05/01/2015 10:33:04 -0.21,-134.20 0.07,-135.47 144.30 80
5 05/01/2015 22:54:27 -0.89,-139.40 -0.07,-135.43 450.07 80
6 05/03/2015 10:20:51 -0.84,-131.24 0.07,-135.49 483.33 80
7 05/03/2015 22:42:13 -0.30,-136.43 -0.07,-135.46 111.15 80
8 05/05/2015 22:30:01 0.38,-133.47 -0.07,-135.47 227.36 80
9 05/06/2015 10:51:15 0.71,-138.63 0.07,-135.52 353.89 80
10 05/08/2015 10:39:00 0.11,-135.66 0.07,-135.52 16.19 80




NCC Satellite Simultaneous Nadir Overpasses (SNOs) Prediction Service
